DELTA 1 R/B, 3346

Orbit data source: Space-Track

DELTA 1 R/B, 3346 is space debris in SSO originally from a launch on Fri, 16 Aug 1968 UTC launched from the Air Force Western Test Range (AFWTR). Debris objects in space refer to the collection of defunct objects orbiting the Earth. Examples of debris include non-operational satellites, rocket bodies, and fragments generated from explosions, collisions, or faulty payload assembly.

Loading next visibility...
Identifier
3346, 1968-069B
Orbit
SSO
Country
Flag of USUS
Related business
Manufacturer
Aerojet
Mission
Spacecraft
Bus & Motor
ABLESTAR, Unknown motor
Mass
~785 kg wet, ~785 kg dry
Launch date (UTC)
1968-08-16 (58 years ago)
Launch vehicle
Unknown
Launch site
Air Force Western Test Range (AFWTR)
Object type
Payload
Rocket body
Debris
Shape & HBR
Unknown
Radar Cross Section
Large (>1 m²)

Expand to show TLE details & history
Last TLE update: 12 hours ago

TLE from 12 hours ago
0 DELTA 1 R/B
1 03346U 68069B   26120.88027272 -.00000044  00000-0 -31425-5 0  9992
2 03346 101.5347  87.2118 0024356  90.2375 284.6634 12.54344740641707
Epoch: 2026-04-30T21:07Z
TLE epoch observation values (Epoch: 2026-04-30T21:07:35.563Z)
Latitude
14.30406°
Longitude
-91.47498°
Altitude
1,443.468 km
Speed
7.143 km/s
True Right ascension
05h 36m 58s
True Declination
14° 13' 45"
Sunlit
Object was in daylight at epoch
Visualization orbit readout
Latitude
Unknown
Longitude
Unknown
Altitude
Unknown
Speed
Unknown
Apparent Right ascension
Unknown
Apparent Declination
Unknown
Sunlit
N/A
Visualization observer readout
Local Sidereal Time
16:50:06
Azimuth
Unknown
Elevation
Unknown
Doppler factor
Unknown
Orbital elements
Apogee altitude
1,462.954 km
Perigee altitude
1,424.852 km
Semi-major axis
7,822.04 km
Eccentricity
0.00244
Inclination
101.5347°
RAAN
87.2118°
Arg. of periapsis
90.2375°
True anomaly
284.39318°
Mean anomaly
284.6634°
Eccentric anomaly
284.52831°
Mean motion
3.13735 °/min
Orbital period
114.75 mins
BSTAR
-0.0000031425
Loading maneuver chart data...
Computing Atmospheric mass density...
Loading historical data...
Loading historical data...
Loading historical data...
Loading historical data...
Loading historical data...
Loading historical data...
Loading historical data...

Documentation

Showing up to 5 results
|